Temp
73 73 72 71 71 72 74 75 75 75 75 75 75 75 75 76 75 75 75 75 73 72 72 73 73 72 75 72 73 74 74 74 74 74 74 74 74 74 73 73 72 73 72 72 71 72 73 74 74 73 73 73 72 67 66 66 65 66 65 66 66 67
72 72 72 72 72 72 72 74 71 72 73 74 74 75 74 73 75 72 75 73 71 72 70 70 71 74 71 73 73 74 74 74 74 74 73 74 73 73 73 73 72 72 72 71 69 66 70 73 73 73 73 72 67 65 66 66 65 65 66 66 67 71
72 72 72 72 71 71 70 70 70 71 72 74 73 73 71 72 70 71 70 69 70 70 70 70 71 72 72 74 73 74 74 74 74 74 73 73 73 73 73 72 73 72 71 69 66 65 66 67 69 73 72 67 65 65 65 65 65 65 65 67 65 74
72 72 72 71 71 70 70 70 70 70 70 71 71 70 69 70 70 69 69 69 69 70 70 69 74 74 74 72 72 73 74 74 74 73 74 72 73 73 73 73 72 70 68 67 65 65 66 65 65 65 65 64 64 65 65 65 64 65 65 68 68 74
72 72 72 71 71 70 71 71 71 71 71 71 69 69 69 68 69 69 69 69 69 70 69 70 70 70 69 69 68 69 70 69 68 66 70 64 64 66 66 64 64 64 63 66 65 66 67 66 65 66 65 65 65 65 65 65 64 64 65 66 69 74
71 71 71 71 71 71 72 70 70 71 70 70 70 68 68 68 68 68 68 68 69 68 68 68 68 68 69 68 68 67 67 67 66 65 66 63 63 62 62 62 64 64 63 64 64 65 67 66 65 65 65 65 66 65 65 64 64 64 65 65 69 74
70 70 71 71 71 71 70 70 70 70 70 69 69 69 68 68 67 67 67 68 68 67 67 68 68 69 68 68 67 66 66 66 66 65 64 63 63 62 62 62 61 61 61 63 65 66 66 66 65 66 65 67 67 66 64 64 64 64 65 66 70 73
70 70 70 70 70 70 70 70 70 71 70 70 69 68 69 68 67 66 67 67 67 66 67 67 68 68 68 67 66 66 66 65 66 65 64 63 62 62 62 61 61 61 64 64 66 66 67 67 65 66 66 65 65 64 64 64 65 66 66 66 67 72
70 70 69 70 70 69 69 69 70 69 68 71 68 68 69 67 66 67 67 67 67 66 66 67 67 68 67 67 66 66 65 65 65 64 63 63 63 62 62 61 62 63 61 63 63 64 66 66 65 65 65 65 65 64 64 65 66 65 65 65 66 70
70 69 69 70 69 68 68 68 68 69 68 70 67 67 68 67 66 66 66 66 67 67 66 66 67 67 66 66 66 66 66 65 65 63 63 63 63 63 62 61 62 63 64 63 64 66 65 65 66 65 64 65 65 65 64 64 65 64 64 65 66 69
68 69 69 68 67 66 66 67 67 68 68 67 67 67 67 66 66 67 67 67 67 67 67 66 67 67 66 66 66 66 65 65 64 63 63 64 63 63 62 62 64 63 62 63 63 65 66 65 65 65 66 66 65 65 65 65 65 65 65 64 64 65
68 68 68 67 67 65 65 66 67 67 67 66 67 67 67 67 67 66 66 67 67 66 67 66 67 67 66 66 66 66 65 65 64 64 64 64 64 63 63 63 64 64 63 63 63 64 64 64 64 65 65 65 65 65 64 65 65 65 64 64 64 64
68 67 67 67 66 66 66 66 65 65 66 67 67 66 66 66 66 66 67 67 67 67 68 67 66 67 67 66 66 66 65 65 66 65 65 65 65 64 64 64 64 65 63 64 64 63 65 64 64 64 65 65 65 65 65 65 64 64 64 64 63 63
67 66 67 66 66 66 66 66 66 66 66 66 66 66 66 66 66 66 66 66 66 67 67 67 67 66 66 66 66 66 65 65 65 65 65 65 65 64 64 65 64 64 66 64 63 63 63 64 64 64 64 65 64 64 65 65 64 64 63 64 63 64
67 66 66 66 66 66 66 65 65 66 66 66 66 66 66 66 66 66 66 65 66 66 66 66 67 66 65 65 65 65 64 64 65 65 65 65 65 64 65 64 64 63 63 62 63 64 64 64 64 65 65 66 66 65 65 64 64 64 63 63 63 63
66 65 65 65 65 65 65 65 65 67 66 66 65 65 65 66 66 66 66 65 66 66 66 66 66 66 65 65 65 64 64 64 65 65 65 65 65 65 64 64 64 65 63 62 63 62 64 64 64 65 65 66 66 65 65 64 64 64 63 63 63 62
65 64 64 64 64 65 65 65 65 66 66 66 65 65 66 66 66 65 66 65 66 66 66 66 66 66 65 65 64 64 64 64 65 65 65 64 64 64 65 65 64 64 65 61 62 62 63 64 64 65 65 65 65 65 65 64 64 63 63 63 62 62
65 64 64 64 64 64 65 65 65 65 66 65 66 66 66 66 65 65 66 65 66 66 66 65 65 65 65 65 65 64 64 64 65 64 64 64 63 64 64 64 62 61 62 62 61 63 63 64 64 64 64 64 64 65 64 64 63 64 62 62 62 62
64 63 64 64 64 64 65 65 65 64 65 65 65 66 66 66 66 66 66 66 66 66 66 65 66 66 65 65 64 64 64 64 65 64 64 64 63 64 63 62 62 61 62 61 62 63 63 63 63 63 63 63 64 64 64 64 63 62 62 63 64 64
64 64 63 64 64 63 64 64 64 64 64 65 65 65 66 66 66 66 66 66 66 65 66 66 65 65 65 65 64 64 64 64 64 64 64 63 63 62 62 62 61 62 61 62 63 63 63 63 62 62 62 63 63 64 64 63 63 62 62 63 63 63
64 64 63 63 63 63 63 63 64 63 63 64 65 65 66 66 66 66 67 66 66 65 66 66 66 65 65 66 64 64 64 64 64 64 63 63 63 62 62 62 61 61 61 61 61 63 63 63 61 60 62 62 62 63 64 64 63 62 62 62 62 62
64 64 63 63 63 64 64 64 64 64 64 64 65 65 65 66 66 66 66 65 65 65 65 65 65 64 65 64 64 64 64 63 63 63 63 63 62 63 62 61 62 61 60 61 61 63 62 62 58 59 58 59 60 61 63 63 63 62 63 63 63 62
64 64 64 64 63 64 64 64 63 63 64 64 66 66 66 66 67 65 65 65 65 65 65 65 65 65 65 65 64 64 64 63 63 64 63 62 62 62 61 62 62 61 60 59 60 62 61 58 58 60 60 59 57 57 60 61 62 63 63 62 63 62
63 63 63 64 65 64 64 64 64 64 65 65 64 65 65 66 65 65 64 65 65 66 66 65 65 65 65 65 64 64 64 63 63 64 63 62 61 62 61 61 62 62 62 60 60 61 61 59 61 61 55 53 57 58 55 57 58 60 62 63 63 62
63 64 64 64 64 62 64 63 64 64 65 65 65 64 64 63 64 64 64 65 64 65 66 65 65 65 65 64 64 64 63 63 63 62 63 62 62 62 62 62 62 62 61 60 59 58 60 59 61 60 58 56 54 55 55 57 59 59 61 61 62 63
64 64 64 64 63 62 62 62 62 62 62 62 62 63 62 62 63 63 63 65 65 66 66 66 65 65 65 65 64 64 64 63 62 62 62 62 62 61 61 61 62 62 61 60 61 60 59 58 61 59 56 57 59 56 56 58 59 54 60 61 61 63
63 62 62 64 64 63 61 62 63 63 64 63 62 63 65 65 64 64 64 64 65 66 66 65 65 65 64 65 64 64 63 63 63 62 63 62 61 61 62 62 62 62 61 61 61 60 59 59 59 60 59 59 59 56 60 59 55 57 55 58 60 61
63 62 61 62 63 63 63 63 63 63 64 63 63 63 64 64 63 63 63 63 64 65 65 65 64 64 64 65 64 64 63 63 63 63 63 62 62 62 62 61 62 63 61 62 61 61 59 59 59 59 59 57 57 59 58 55 59 57 57 55 56 60
62 63 62 63 63 63 64 63 63 63 63 63 64 64 64 64 63 64 63 63 64 64 63 64 64 64 64 65 64 63 63 62 63 63 64 62 62 62 62 62 61 61 61 61 61 61 60 59 59 58 58 55 58 57 56 58 58 55 57 56 56 57
62 63 63 63 64 64 63 63 62 62 62 61 63 63 63 63 63 63 63 62 63 63 63 63 63 64 64 64 64 64 63 63 63 63 63 62 62 62 62 62 62 62 61 61 60 61 61 60 60 59 59 57 55 55 56 56 55 56 57 56 55 56
63 63 63 63 64 63 63 62 62 62 62 62 62 63 63 63 63 63 63 62 62 62 62 62 62 61 63 63 63 64 63 63 63 64 63 62 62 62 62 61 62 62 61 61 61 61 60 59 60 60 58 59 59 60 57 54 56 57 55 54 56 57
63 64 64 64 63 63 63 63 61 62 62 62 62 63 63 63 63 63 63 62 62 62 62 61 60 60 61 62 63 62 63 63 63 63 63 63 63 63 62 62 61 61 61 61 60 61 60 59 59 59 58 59 59 59 57 58 59 58 57 56 58 57
62 64 64 64 63 63 62 61 61 61 61 62 62 62 63 63 63 63 63 62 62 61 61 61 60 60 60 61 62 62 61 62 62 63 64 63 63 63 62 61 62 61 61 61 61 61 60 60 60 60 59 58 59 59 58 58 59 57 57 58 59 57
61 64 64 63 63 63 62 61 61 60 61 62 62 62 62 63 63 63 63 63 63 62 61 62 61 60 61 62 62 63 63 63 63 63 63 63 63 63 62 62 62 61 61 61 61 60 61 60 60 60 60 59 59 58 57 59 59 59 58 58 56 57
61 62 63 63 62 63 61 61 61 61 61 61 62 62 62 62 62 62 62 63 63 63 62 61 61 61 61 62 62 62 62 62 62 62 62 63 63 63 63 63 62 62 61 61 61 61 60 60 61 59 58 59 59 57 58 59 60 59 60 60 59 58
61 61 62 62 62 62 61 61 61 61 60 61 61 61 61 61 62 62 62 62 63 63 62 61 61 61 61 62 61 61 62 61 61 61 61 62 62 62 62 62 61 61 61 62 61 60 60 60 60 59 59 57 59 58 58 59 60 60 60 60 60 59
61 61 61 62 61 62 61 60 60 61 61 61 61 61 61 61 61 61 61 62 62 63 62 62 62 61 61 61 61 61 61 61 61 61 61 61 62 62 62 62 62 61 61 60 61 61 59 60 59 59 58 58 59 58 58 59 60 60 60 60 60 60
MSLP
1013.35 1013.55 1013.75 1013.99 1014.15 1014.27 1014.35 1014.43 1014.51 1014.63 1014.71 1014.87 1014.99 1015.07 1015.15 1015.27 1015.35 1015.47 1015.55 1015.75 1015.95 1016.11 1016.15 1016.07 1016.27 1016.47 1016.55 1016.67 1016.71 1016.75 1016.83 1016.87 1016.99 1017.07 1017.11 1017.15 1017.19 1017.27 1017.39 1017.55 1017.71 1017.91 1018.03 1018.11 1018.15 1018.15 1018.11 1018.19 1018.31 1018.47 1018.63 1018.75 1018.87 1019.11 1019.23 1019.23 1019.27 1019.35 1019.47 1019.55 1019.55 1019.55
1013.59 1013.75 1013.91 1014.11 1014.23 1014.35 1014.43 1014.55 1014.71 1014.79 1014.91 1014.99 1015.07 1015.15 1015.19 1015.31 1015.39 1015.51 1015.59 1015.79 1015.99 1016.19 1016.47 1016.47 1016.35 1016.47 1016.71 1016.75 1016.79 1016.87 1016.91 1016.95 1017.07 1017.19 1017.23 1017.27 1017.31 1017.39 1017.43 1017.59 1017.75 1017.95 1018.11 1018.27 1018.35 1018.43 1018.43 1018.51 1018.59 1018.71 1018.83 1018.99 1019.23 1019.35 1019.35 1019.35 1019.35 1019.39 1019.51 1019.59 1019.59 1019.59
1013.75 1013.87 1014.03 1014.19 1014.31 1014.39 1014.51 1014.63 1014.71 1014.83 1014.91 1015.03 1015.11 1015.19 1015.23 1015.35 1015.51 1015.59 1015.75 1015.91 1015.95 1015.95 1016.31 1016.71 1016.51 1016.55 1016.75 1016.83 1016.87 1016.95 1016.99 1017.03 1017.15 1017.27 1017.35 1017.39 1017.43 1017.47 1017.55 1017.67 1017.83 1018.03 1018.23 1018.39 1018.51 1018.63 1018.67 1018.75 1018.91 1018.95 1019.07 1019.31 1019.47 1019.51 1019.43 1019.47 1019.51 1019.55 1019.67 1019.67 1019.67 1019.63
1013.83 1013.95 1014.15 1014.31 1014.39 1014.47 1014.55 1014.63 1014.79 1014.91 1015.03 1015.19 1015.27 1015.35 1015.39 1015.47 1015.55 1015.63 1015.75 1015.87 1015.99 1016.03 1016.27 1016.63 1016.47 1016.51 1016.79 1016.95 1016.99 1017.03 1017.07 1017.11 1017.19 1017.35 1017.43 1017.47 1017.51 1017.55 1017.63 1017.71 1017.91 1018.11 1018.39 1018.55 1018.63 1018.71 1018.83 1018.99 1019.15 1019.27 1019.39 1019.47 1019.59 1019.63 1019.63 1019.67 1019.75 1019.79 1019.79 1019.75 1019.75 1019.67
1013.83 1013.99 1014.19 1014.35 1014.47 1014.63 1014.67 1014.79 1014.91 1015.07 1015.19 1015.31 1015.51 1015.51 1015.59 1015.67 1015.71 1015.79 1015.87 1016.03 1016.11 1016.15 1016.51 1016.67 1016.63 1016.75 1017.07 1017.15 1017.19 1017.23 1017.23 1017.27 1017.31 1017.47 1017.55 1017.71 1017.71 1017.75 1017.79 1017.95 1018.07 1018.27 1018.51 1018.63 1018.71 1018.87 1018.95 1019.19 1019.31 1019.47 1019.55 1019.63 1019.67 1019.79 1019.91 1019.95 1020.03 1020.11 1020.07 1019.99 1019.95 1019.87
1013.91 1014.07 1014.19 1014.35 1014.51 1014.59 1014.71 1014.99 1015.19 1015.31 1015.43 1015.51 1015.63 1015.71 1015.75 1015.87 1015.95 1016.03 1016.11 1016.31 1016.35 1016.55 1016.79 1016.87 1016.83 1017.07 1017.27 1017.35 1017.43 1017.43 1017.43 1017.43 1017.51 1017.63 1017.63 1017.83 1017.87 1017.91 1017.99 1018.03 1018.15 1018.35 1018.59 1018.67 1018.83 1018.91 1019.03 1019.15 1019.43 1019.59 1019.71 1019.79 1019.91 1020.03 1020.15 1020.19 1020.23 1020.27 1020.27 1020.27 1020.23 1020.15
1013.95 1014.03 1014.19 1014.27 1014.39 1014.59 1014.83 1015.07 1015.31 1015.43 1015.63 1015.79 1015.79 1015.87 1015.95 1015.99 1016.11 1016.19 1016.35 1016.55 1016.75 1016.91 1017.03 1017.03 1017.11 1017.27 1017.47 1017.43 1017.55 1017.55 1017.55 1017.51 1017.63 1017.75 1017.79 1017.91 1018.03 1018.07 1018.07 1018.11 1018.23 1018.39 1018.55 1018.67 1018.87 1018.99 1019.19 1019.39 1019.51 1019.67 1019.83 1019.91 1020.03 1020.15 1020.27 1020.31 1020.31 1020.31 1020.39 1020.43 1020.43 1020.35
1013.87 1013.99 1014.19 1014.27 1014.51 1014.79 1014.99 1015.23 1015.39 1015.55 1015.75 1015.87 1015.99 1016.07 1016.03 1016.03 1016.35 1016.63 1016.39 1016.67 1017.03 1017.11 1017.15 1017.23 1017.27 1017.43 1017.51 1017.55 1017.63 1017.63 1017.59 1017.67 1017.71 1017.83 1017.91 1018.03 1018.15 1018.23 1018.19 1018.23 1018.31 1018.43 1018.51 1018.67 1018.83 1019.07 1019.27 1019.47 1019.67 1019.75 1019.91 1020.03 1020.15 1020.27 1020.35 1020.31 1020.27 1020.27 1020.27 1020.51 1020.55 1020.51
1013.91 1014.15 1014.27 1014.31 1014.63 1014.83 1014.95 1015.11 1015.35 1015.59 1015.83 1015.91 1016.07 1016.03 1015.95 1016.15 1016.59 1016.75 1016.67 1016.67 1017.15 1017.35 1017.31 1017.35 1017.43 1017.47 1017.51 1017.59 1017.63 1017.67 1017.71 1017.79 1017.83 1017.95 1018.03 1018.19 1018.23 1018.35 1018.39 1018.39 1018.43 1018.51 1018.59 1018.63 1018.75 1019.15 1019.35 1019.59 1019.71 1019.87 1019.99 1020.15 1020.27 1020.35 1020.39 1020.43 1020.47 1020.47 1020.43 1020.59 1020.67 1020.63
1013.87 1014.07 1014.23 1014.43 1014.75 1014.91 1014.99 1015.15 1015.27 1015.39 1015.51 1015.79 1016.03 1015.95 1015.91 1016.31 1016.63 1017.03 1016.87 1016.83 1017.51 1017.35 1017.43 1017.47 1017.51 1017.51 1017.55 1017.67 1017.67 1017.71 1017.83 1017.87 1017.95 1018.03 1018.15 1018.27 1018.31 1018.39 1018.55 1018.59 1018.55 1018.59 1018.63 1018.71 1018.71 1019.11 1019.35 1019.67 1019.79 1019.95 1020.03 1020.15 1020.27 1020.35 1020.43 1020.47 1020.55 1020.63 1020.63 1020.67 1020.75 1020.71
1013.63 1013.79 1014.07 1014.59 1014.87 1015.15 1015.27 1015.39 1015.43 1015.47 1015.59 1015.75 1015.87 1015.87 1015.99 1016.43 1016.79 1016.99 1016.83 1016.83 1017.47 1017.55 1017.51 1017.55 1017.59 1017.63 1017.63 1017.63 1017.71 1017.75 1017.87 1017.91 1018.03 1018.07 1018.15 1018.27 1018.31 1018.39 1018.55 1018.63 1018.63 1018.71 1018.75 1018.79 1018.95 1019.11 1019.35 1019.67 1019.79 1019.95 1020.03 1020.15 1020.31 1020.39 1020.55 1020.55 1020.63 1020.71 1020.79 1020.79 1020.83 1020.87
1013.99 1014.11 1014.31 1014.59 1014.79 1015.07 1015.23 1015.27 1015.39 1015.59 1015.87 1016.03 1015.99 1016.03 1016.15 1016.35 1016.43 1016.71 1016.87 1017.03 1017.07 1017.51 1017.47 1017.51 1017.51 1017.63 1017.67 1017.71 1017.71 1017.75 1017.79 1017.87 1017.99 1018.03 1018.11 1018.19 1018.27 1018.35 1018.51 1018.59 1018.71 1018.75 1018.87 1018.99 1019.19 1019.35 1019.51 1019.67 1019.83 1019.99 1020.11 1020.27 1020.31 1020.43 1020.59 1020.67 1020.79 1020.87 1020.95 1020.99 1020.99 1021.07
1013.87 1014.07 1014.23 1014.39 1014.51 1014.59 1014.75 1014.95 1015.11 1015.31 1015.75 1016.23 1016.23 1016.19 1016.51 1016.75 1016.95 1016.99 1017.11 1017.15 1016.95 1017.07 1017.23 1017.35 1017.43 1017.51 1017.59 1017.63 1017.67 1017.71 1017.75 1017.75 1017.79 1017.87 1018.03 1018.15 1018.23 1018.35 1018.51 1018.71 1018.79 1018.83 1019.03 1019.19 1019.35 1019.63 1019.71 1019.87 1019.99 1020.19 1020.27 1020.43 1020.43 1020.59 1020.71 1020.87 1020.99 1021.07 1021.15 1021.11 1021.15 1021.19
1013.79 1013.87 1013.99 1014.07 1014.31 1014.39 1014.39 1014.55 1014.79 1014.99 1015.19 1015.35 1015.67 1015.95 1016.43 1016.71 1016.91 1016.91 1016.99 1017.11 1017.27 1017.47 1017.31 1017.15 1017.23 1017.47 1017.51 1017.59 1017.63 1017.63 1017.67 1017.71 1017.67 1017.75 1017.91 1018.11 1018.27 1018.39 1018.59 1018.75 1018.91 1019.03 1019.19 1019.27 1019.59 1019.83 1019.95 1020.19 1020.31 1020.47 1020.59 1020.67 1020.71 1020.83 1020.91 1021.07 1021.15 1021.19 1021.19 1021.23 1021.27 1021.31
1013.67 1013.83 1013.87 1013.95 1013.95 1014.03 1014.07 1014.31 1014.75 1015.11 1015.27 1015.15 1015.19 1015.67 1016.15 1016.35 1016.27 1016.39 1016.59 1016.63 1016.99 1017.55 1017.71 1017.31 1017.15 1017.31 1017.47 1017.47 1017.55 1017.63 1017.67 1017.67 1017.67 1017.79 1017.91 1018.03 1018.23 1018.43 1018.51 1018.75 1018.91 1019.19 1019.35 1019.51 1019.71 1019.95 1020.15 1020.35 1020.55 1020.71 1020.79 1020.83 1020.95 1020.99 1021.11 1021.23 1021.27 1021.35 1021.35 1021.39 1021.43 1021.47
1013.63 1013.79 1013.95 1013.95 1013.91 1013.95 1014.11 1014.27 1014.43 1014.75 1014.83 1014.83 1015.11 1015.55 1015.83 1016.07 1016.27 1016.31 1016.51 1016.59 1016.71 1017.43 1017.63 1017.31 1017.11 1017.15 1017.35 1017.35 1017.47 1017.59 1017.59 1017.63 1017.67 1017.79 1017.95 1018.11 1018.31 1018.47 1018.63 1018.83 1018.87 1018.87 1019.43 1019.79 1019.83 1020.19 1020.27 1020.51 1020.63 1020.79 1020.83 1020.91 1021.03 1021.11 1021.27 1021.35 1021.43 1021.47 1021.51 1021.51 1021.63 1021.67
1013.47 1013.55 1013.75 1013.87 1013.91 1014.03 1014.07 1013.99 1013.95 1014.31 1014.51 1014.71 1014.99 1015.23 1015.43 1015.67 1015.91 1016.23 1016.43 1016.55 1016.59 1016.95 1017.43 1017.43 1017.23 1016.99 1017.07 1017.19 1017.35 1017.51 1017.59 1017.67 1017.67 1017.79 1018.03 1018.23 1018.43 1018.47 1018.63 1018.91 1019.03 1018.99 1018.99 1019.71 1020.03 1020.27 1020.43 1020.55 1020.71 1020.79 1020.91 1021.03 1021.15 1021.19 1021.35 1021.43 1021.51 1021.55 1021.59 1021.71 1021.79 1021.75
1013.31 1013.55 1013.67 1013.79 1013.83 1013.95 1014.03 1013.91 1013.95 1014.19 1014.39 1014.55 1014.79 1014.91 1015.11 1015.43 1015.87 1016.23 1016.51 1016.75 1016.75 1016.79 1017.19 1017.39 1016.99 1016.79 1016.87 1016.95 1017.15 1017.39 1017.55 1017.63 1017.71 1017.87 1018.11 1018.31 1018.51 1018.51 1018.63 1018.79 1019.23 1019.35 1019.39 1019.55 1020.15 1020.35 1020.63 1020.71 1020.83 1020.99 1021.11 1021.23 1021.31 1021.35 1021.47 1021.59 1021.63 1021.67 1021.75 1021.95 1021.99 1021.95
1013.47 1013.75 1013.87 1013.91 1013.99 1014.19 1014.27 1014.15 1013.99 1014.27 1014.43 1014.59 1014.71 1014.79 1014.95 1015.35 1015.67 1015.99 1016.23 1016.39 1016.43 1016.63 1016.87 1016.79 1016.63 1016.63 1016.75 1016.91 1017.11 1017.31 1017.51 1017.63 1017.71 1017.87 1018.19 1018.47 1018.59 1018.63 1018.79 1018.99 1019.19 1019.59 1019.71 1019.79 1019.99 1020.35 1020.55 1020.79 1021.03 1021.19 1021.35 1021.43 1021.43 1021.51 1021.55 1021.67 1021.75 1021.83 1021.91 1021.91 1021.91 1022.03
1013.43 1013.55 1013.67 1013.79 1013.99 1014.19 1014.27 1014.27 1014.39 1014.47 1014.67 1014.75 1014.83 1014.95 1014.99 1015.19 1015.43 1015.71 1015.87 1015.95 1016.07 1016.27 1016.39 1016.55 1016.59 1016.59 1016.67 1016.87 1017.03 1017.27 1017.43 1017.63 1017.75 1017.87 1018.27 1018.55 1018.71 1018.75 1018.91 1019.15 1019.39 1019.55 1019.95 1020.15 1020.31 1020.47 1020.63 1020.87 1021.23 1021.43 1021.59 1021.59 1021.59 1021.59 1021.67 1021.79 1021.87 1021.99 1022.03 1021.95 1021.99 1021.99
1013.23 1013.19 1013.27 1013.63 1013.99 1014.23 1014.39 1014.51 1014.55 1014.55 1014.43 1014.59 1014.91 1015.07 1015.23 1015.27 1015.43 1015.55 1015.71 1015.87 1016.07 1016.27 1016.43 1016.55 1016.63 1016.63 1016.75 1016.87 1017.07 1017.35 1017.51 1017.71 1017.75 1017.95 1018.27 1018.51 1018.63 1018.75 1018.83 1019.07 1019.43 1019.63 1019.95 1020.31 1020.67 1020.67 1020.79 1020.75 1021.19 1021.79 1021.79 1021.91 1021.95 1021.83 1021.83 1021.87 1022.03 1022.11 1022.11 1022.03 1021.99 1022.03
1013.15 1013.11 1013.31 1013.51 1013.75 1014.15 1014.19 1014.07 1014.11 1014.35 1014.71 1015.03 1015.23 1015.39 1015.47 1015.39 1015.43 1015.51 1015.75 1016.23 1016.67 1016.95 1016.95 1016.75 1016.67 1016.71 1016.83 1016.95 1017.19 1017.51 1017.55 1017.75 1017.75 1017.99 1018.31 1018.47 1018.67 1018.71 1018.91 1019.23 1019.43 1019.87 1019.95 1020.15 1020.55 1020.63 1020.75 1020.71 1021.51 1021.63 1021.99 1022.31 1022.35 1022.19 1022.07 1022.07 1022.15 1022.23 1022.19 1022.03 1022.07 1022.11
1013.27 1013.35 1013.43 1013.63 1013.95 1014.27 1014.47 1014.63 1014.71 1014.79 1014.95 1015.31 1015.23 1015.31 1015.35 1015.31 1015.35 1015.63 1016.07 1016.51 1016.79 1017.03 1017.15 1017.11 1016.91 1016.83 1016.95 1017.03 1017.19 1017.39 1017.59 1017.71 1017.67 1017.95 1018.35 1018.59 1018.67 1018.75 1018.91 1019.15 1019.31 1019.55 1020.11 1020.19 1020.47 1020.63 1020.67 1020.55 1021.27 1021.51 1021.67 1022.15 1022.59 1022.75 1022.43 1022.31 1022.19 1022.15 1022.11 1022.11 1022.15 1022.27
1014.07 1014.27 1014.51 1014.55 1014.59 1014.63 1014.63 1014.75 1014.79 1014.87 1014.99 1015.19 1015.51 1015.43 1015.47 1015.47 1015.55 1015.67 1016.03 1016.19 1016.47 1016.47 1016.51 1016.83 1017.11 1016.83 1016.91 1017.07 1017.23 1017.35 1017.55 1017.67 1017.63 1017.79 1018.07 1018.47 1018.71 1018.79 1018.91 1019.11 1019.23 1019.47 1019.55 1020.43 1020.59 1020.83 1020.67 1020.67 1020.75 1021.19 1022.35 1022.31 1022.47 1022.51 1023.03 1022.79 1022.63 1022.39 1022.15 1022.15 1022.23 1022.35
1014.63 1014.75 1014.87 1014.99 1015.15 1015.19 1014.99 1014.95 1015.07 1015.19 1015.15 1015.39 1015.47 1015.59 1015.79 1015.95 1015.87 1015.87 1016.03 1016.11 1016.15 1016.15 1016.31 1016.51 1016.75 1016.79 1016.87 1017.07 1017.15 1017.47 1017.47 1017.59 1017.63 1017.83 1018.07 1018.35 1018.59 1018.67 1018.75 1018.83 1018.99 1019.31 1019.43 1019.75 1020.47 1020.63 1020.79 1020.71 1020.67 1020.51 1020.95 1022.15 1022.75 1022.95 1022.71 1022.51 1022.51 1022.67 1022.35 1022.35 1022.35 1022.35
1014.35 1014.47 1014.67 1014.87 1015.03 1015.31 1015.43 1015.31 1015.31 1015.59 1015.87 1015.83 1015.87 1015.79 1015.87 1015.87 1015.99 1015.99 1016.03 1016.03 1015.95 1015.99 1016.19 1016.47 1016.63 1016.71 1016.83 1016.99 1017.15 1017.27 1017.39 1017.59 1017.79 1017.87 1018.03 1018.23 1018.43 1018.59 1018.71 1018.83 1018.83 1018.95 1019.31 1019.47 1019.67 1020.35 1020.75 1020.75 1020.59 1020.63 1020.71 1020.71 1020.87 1021.43 1022.39 1022.35 1022.43 1023.19 1022.63 1022.43 1022.39 1022.31
1013.63 1014.03 1014.31 1014.63 1014.95 1015.15 1015.39 1015.35 1015.31 1015.39 1015.47 1015.59 1015.67 1015.59 1015.39 1015.47 1015.75 1015.95 1015.91 1016.11 1016.07 1016.11 1016.27 1016.55 1016.63 1016.63 1016.71 1016.87 1017.03 1017.11 1017.27 1017.47 1017.67 1017.79 1017.91 1018.19 1018.47 1018.51 1018.51 1018.55 1018.63 1018.83 1019.11 1019.35 1019.71 1020.19 1020.39 1020.63 1020.71 1020.67 1020.71 1020.75 1020.83 1020.83 1020.95 1021.83 1022.63 1022.75 1023.03 1022.83 1022.55 1022.55
1012.99 1013.55 1013.99 1014.35 1014.71 1014.91 1015.19 1015.23 1015.15 1015.07 1015.03 1015.19 1015.23 1015.35 1015.35 1015.55 1015.71 1015.99 1016.23 1016.35 1016.31 1016.27 1016.35 1016.47 1016.59 1016.67 1016.75 1016.79 1016.95 1017.11 1017.23 1017.43 1017.63 1017.75 1017.87 1018.15 1018.35 1018.43 1018.51 1018.55 1018.55 1018.67 1018.95 1019.23 1019.47 1019.75 1020.23 1020.35 1020.47 1020.63 1020.63 1020.83 1020.95 1020.99 1021.07 1021.07 1021.23 1021.75 1022.23 1022.87 1022.99 1022.71
1013.07 1013.23 1013.59 1013.99 1014.43 1014.67 1014.83 1014.83 1014.79 1014.75 1015.03 1015.11 1015.15 1015.31 1015.31 1015.47 1015.67 1015.75 1016.23 1016.47 1016.47 1016.39 1016.47 1016.51 1016.47 1016.51 1016.63 1016.75 1016.95 1017.11 1017.27 1017.39 1017.55 1017.71 1017.87 1018.19 1018.31 1018.35 1018.39 1018.51 1018.71 1018.87 1019.07 1019.27 1019.35 1019.47 1019.75 1020.07 1020.23 1020.35 1020.63 1021.07 1021.15 1021.27 1021.23 1021.19 1021.27 1021.39 1022.07 1022.71 1022.99 1022.95
1013.55 1013.55 1013.43 1013.67 1013.99 1014.31 1014.43 1014.43 1014.55 1014.71 1015.07 1015.31 1015.23 1015.23 1015.23 1015.43 1015.67 1015.91 1016.19 1016.51 1016.47 1016.39 1016.35 1016.39 1016.47 1016.47 1016.51 1016.67 1016.91 1017.11 1017.27 1017.39 1017.47 1017.59 1017.79 1017.99 1018.11 1018.23 1018.27 1018.39 1018.47 1018.67 1018.95 1019.23 1019.35 1019.43 1019.55 1019.79 1019.99 1020.19 1020.31 1020.71 1021.15 1021.47 1021.47 1021.55 1021.51 1021.59 1021.83 1021.95 1022.59 1022.91
1013.35 1013.47 1013.47 1013.51 1013.63 1013.91 1013.95 1013.99 1014.23 1014.75 1014.99 1015.07 1015.15 1015.11 1015.23 1015.43 1015.55 1015.79 1016.11 1016.27 1016.35 1016.27 1016.23 1016.27 1016.31 1016.43 1016.51 1016.63 1016.83 1016.99 1017.19 1017.27 1017.31 1017.39 1017.55 1017.79 1017.95 1017.99 1018.11 1018.23 1018.39 1018.59 1018.83 1019.07 1019.27 1019.39 1019.55 1019.75 1019.99 1020.19 1020.39 1020.47 1020.71 1020.87 1020.91 1021.23 1021.43 1021.43 1021.55 1022.15 1022.59 1022.91
1012.95 1012.95 1013.19 1013.35 1013.51 1013.59 1013.59 1013.71 1014.15 1014.51 1014.63 1014.75 1014.87 1014.99 1015.07 1015.19 1015.31 1015.47 1015.71 1015.99 1016.15 1016.27 1016.31 1016.35 1016.39 1016.51 1016.63 1016.63 1016.71 1016.91 1016.99 1017.11 1017.19 1017.27 1017.39 1017.51 1017.75 1017.91 1018.07 1018.23 1018.39 1018.51 1018.67 1018.83 1019.03 1019.27 1019.43 1019.71 1019.95 1020.19 1020.35 1020.43 1020.47 1020.55 1020.59 1020.59 1020.87 1020.95 1021.19 1021.67 1022.03 1022.71
1013.15 1012.67 1012.83 1013.15 1013.39 1013.43 1013.51 1013.83 1014.31 1014.55 1014.67 1014.83 1014.87 1014.79 1014.75 1014.79 1014.91 1015.15 1015.35 1015.59 1015.83 1015.99 1016.11 1016.31 1016.43 1016.55 1016.59 1016.55 1016.63 1016.79 1016.95 1016.99 1017.11 1017.11 1017.19 1017.43 1017.67 1017.91 1018.11 1018.23 1018.35 1018.47 1018.59 1018.75 1018.87 1019.03 1019.31 1019.47 1019.67 1019.95 1020.19 1020.35 1020.35 1020.43 1020.43 1020.51 1020.67 1020.95 1021.23 1021.47 1021.91 1022.71
1013.59 1013.07 1012.95 1013.27 1013.39 1013.19 1013.23 1013.79 1014.23 1014.47 1014.51 1014.47 1014.47 1014.47 1014.51 1014.55 1014.63 1014.75 1014.91 1015.11 1015.31 1015.51 1015.83 1015.95 1016.19 1016.31 1016.31 1016.39 1016.47 1016.51 1016.67 1016.79 1016.87 1017.03 1017.15 1017.31 1017.55 1017.87 1018.07 1018.19 1018.31 1018.43 1018.55 1018.55 1018.71 1018.91 1019.03 1019.27 1019.51 1019.71 1019.99 1020.31 1020.39 1020.35 1020.43 1020.47 1020.59 1020.75 1021.11 1021.55 1022.19 1022.47
1013.63 1013.51 1013.31 1013.35 1013.15 1013.03 1013.55 1013.83 1013.91 1014.07 1014.31 1014.39 1014.39 1014.35 1014.47 1014.55 1014.59 1014.63 1014.75 1014.83 1014.91 1015.15 1015.51 1015.71 1015.91 1016.07 1016.23 1016.35 1016.43 1016.55 1016.67 1016.79 1016.99 1017.11 1017.19 1017.31 1017.47 1017.75 1017.99 1018.15 1018.27 1018.27 1018.35 1018.51 1018.67 1018.87 1019.11 1019.31 1019.55 1019.75 1019.99 1020.03 1020.23 1020.31 1020.35 1020.39 1020.43 1020.67 1020.79 1021.07 1021.55 1022.11
1013.75 1013.83 1013.51 1013.23 1013.03 1012.95 1013.43 1013.51 1013.55 1013.79 1014.07 1014.19 1014.19 1014.27 1014.31 1014.47 1014.63 1014.55 1014.55 1014.59 1014.55 1014.79 1015.15 1015.51 1015.79 1016.07 1016.23 1016.35 1016.47 1016.59 1016.71 1016.83 1016.95 1017.07 1017.19 1017.27 1017.39 1017.63 1017.91 1018.15 1018.27 1018.31 1018.47 1018.55 1018.75 1018.99 1019.11 1019.27 1019.43 1019.63 1019.79 1019.99 1020.07 1020.19 1020.27 1020.31 1020.39 1020.55 1020.71 1020.91 1021.27 1021.71
1013.63 1013.75 1013.43 1012.87 1012.39 1012.51 1012.83 1013.07 1013.15 1013.23 1013.51 1013.71 1013.79 1013.95 1014.15 1014.27 1014.43 1014.71 1014.79 1014.71 1014.63 1014.59 1014.95 1015.31 1015.63 1015.91 1016.19 1016.35 1016.47 1016.59 1016.75 1016.87 1016.91 1016.99 1017.11 1017.19 1017.31 1017.55 1017.79 1018.03 1018.19 1018.39 1018.59 1018.71 1018.83 1018.99 1019.19 1019.31 1019.43 1019.63 1019.79 1019.79 1019.87 1020.07 1020.23 1020.31 1020.39 1020.55 1020.71 1020.95 1021.19 1021.39
Wind_Speed
7 7 6 5 5 4 7 10 8 9 10 10 10 11 12 13 11 12 12 12 10 6 5 7 8 6 12 8 10 12 12 11 10 9 8 7 7 7 8 8 8 8 8 8 9 9 12 13 15 14 14 14 13 6 5 5 5 5 3 3 2 3
6 7 7 5 4 4 4 6 4 5 5 8 9 9 8 6 8 5 11 10 6 5 3 4 6 8 6 8 10 12 11 10 10 8 7 6 6 7 7 8 8 8 8 8 8 5 7 11 13 13 13 13 7 5 4 5 5 5 5 4 4 7
6 7 7 6 5 5 5 4 4 5 5 7 7 6 5 6 4 5 4 4 5 6 6 4 4 7 6 10 9 12 11 10 9 8 6 5 5 6 6 7 8 8 9 9 5 5 6 6 7 12 10 6 5 5 4 4 4 5 5 4 3 11
7 7 6 5 4 5 4 4 4 4 4 4 4 4 4 4 4 5 5 5 5 5 6 4 10 14 11 6 7 9 11 11 9 8 6 3 4 5 6 7 8 8 6 4 4 5 6 6 6 5 5 5 5 4 4 4 4 4 4 3 4 12
6 6 6 5 5 4 4 4 3 4 4 4 4 4 4 3 3 4 4 4 4 5 5 4 4 5 4 4 3 4 4 4 4 3 4 1 1 2 4 4 4 5 5 4 4 5 6 6 5 5 5 5 5 4 3 3 3 2 2 3 4 11
6 5 6 5 4 5 6 4 4 4 4 3 4 4 4 3 3 4 4 3 4 5 4 3 4 5 4 4 4 4 4 4 3 3 3 2 1 1 2 3 4 4 4 3 4 4 4 6 6 5 5 4 5 4 5 4 3 3 3 2 3 9
6 6 6 5 4 4 4 4 4 3 4 3 3 3 4 4 3 4 3 3 4 4 4 4 5 4 4 4 4 4 4 4 4 3 2 3 0 0 1 2 3 3 2 3 4 4 5 4 4 5 5 5 4 4 5 4 3 4 4 3 4 9
6 6 5 5 5 4 4 5 4 5 3 3 3 3 3 3 2 1 3 3 2 3 4 5 5 5 4 3 4 3 3 4 4 3 2 2 2 0 0 2 2 2 2 2 3 4 5 5 4 4 4 4 5 4 4 4 4 4 5 4 3 7
6 5 4 5 5 4 5 5 4 4 4 5 2 2 3 4 6 4 4 3 2 3 3 4 4 4 4 4 4 3 4 3 3 3 2 1 1 2 0 1 2 1 1 1 1 5 5 5 5 4 4 5 5 5 4 3 3 3 4 4 3 6
6 6 5 6 4 5 4 5 4 6 6 5 3 3 2 4 5 3 2 3 2 3 3 4 4 4 5 4 4 3 3 3 3 2 2 3 2 2 1 2 1 0 0 1 1 5 5 5 5 4 4 5 5 5 4 4 4 4 4 4 4 5
7 8 7 6 6 6 4 4 2 3 3 4 3 4 2 3 5 6 5 6 1 1 3 3 4 5 4 4 4 3 3 3 2 2 2 3 1 2 2 3 3 1 1 2 1 4 6 6 5 5 4 5 5 5 4 4 4 4 4 5 4 3
5 6 7 7 6 5 4 2 3 2 2 1 1 2 1 3 6 4 4 4 4 2 3 4 5 5 4 4 4 4 3 3 3 2 4 3 4 2 3 3 2 2 2 3 5 5 4 5 6 5 4 5 5 5 5 4 4 4 4 4 4 3
8 8 7 7 7 7 5 5 4 5 5 1 2 0 2 3 3 4 2 3 4 5 5 5 5 5 5 5 4 4 3 3 4 4 4 4 3 2 2 3 3 4 4 5 6 5 5 3 5 4 4 4 5 5 4 4 4 4 3 3 4 4
8 9 9 8 7 6 7 6 5 5 6 6 4 4 4 2 3 3 4 2 1 1 4 5 6 5 4 5 4 4 3 3 4 4 4 3 4 3 4 5 5 5 4 5 6 5 5 5 4 4 4 3 3 4 4 4 3 4 3 4 4 4
9 8 7 7 8 8 7 7 6 5 5 7 7 5 5 5 5 5 5 5 4 3 5 3 4 5 5 5 5 4 3 3 3 3 4 4 4 3 5 6 6 6 5 5 6 5 5 6 6 5 5 4 5 4 4 4 4 3 4 3 4 3
9 9 7 6 6 7 7 7 8 8 7 8 6 5 6 6 5 5 5 5 7 5 5 4 4 6 5 4 5 4 4 2 3 4 3 3 4 5 5 5 4 7 6 5 6 6 4 6 6 6 5 4 4 4 4 4 4 4 3 4 4 3
11 10 9 8 7 7 8 9 10 9 9 7 6 6 6 6 6 6 6 7 9 9 9 5 5 6 6 5 5 5 3 3 3 5 5 4 4 5 6 5 3 1 6 6 6 7 7 7 6 6 5 5 4 4 4 4 4 3 3 4 3 3
9 8 8 9 8 7 8 9 7 6 7 7 7 6 7 6 6 6 6 7 8 7 8 8 6 6 6 5 5 5 4 3 4 4 4 5 4 4 4 6 5 4 3 7 6 8 9 6 6 6 5 5 5 4 4 4 3 4 4 3 2 2
7 7 7 7 6 5 6 7 6 6 6 6 5 6 6 6 6 6 7 8 9 8 7 6 6 6 6 6 6 5 5 3 3 5 6 5 5 5 4 3 7 5 5 4 7 6 7 6 6 6 6 6 5 5 5 5 4 3 3 3 4 3
7 8 7 8 7 6 6 7 7 5 6 7 6 6 5 5 5 6 7 7 7 6 6 5 5 4 5 5 6 6 6 4 4 5 6 6 5 5 6 6 6 7 7 6 5 6 7 8 7 7 6 6 5 5 5 5 4 3 2 2 3 3
9 9 9 8 8 8 8 6 3 6 8 6 6 5 5 3 5 4 6 5 6 5 5 5 4 5 5 5 4 4 4 3 4 5 6 5 5 4 5 6 6 4 8 7 4 5 5 7 9 6 5 6 5 4 5 4 4 2 2 2 2 4
9 10 8 9 8 8 7 8 7 4 2 3 4 5 4 3 5 5 4 3 3 2 1 2 3 3 3 5 5 5 4 5 4 5 5 4 4 4 5 6 6 5 1 6 5 6 7 6 2 5 6 4 4 3 4 4 4 3 2 2 2 3
8 9 8 7 6 6 2 3 5 4 4 4 4 3 2 2 4 5 6 4 5 3 1 0 3 3 5 4 5 5 5 5 5 6 6 5 4 5 5 6 6 7 5 2 3 4 4 1 5 4 4 4 2 2 1 2 2 3 2 2 3 3
3 2 2 3 2 1 4 6 7 6 6 4 3 3 3 1 3 5 6 7 6 6 5 3 3 5 5 4 5 5 5 5 5 5 7 6 5 5 5 5 5 5 7 6 3 4 3 1 5 9 3 2 2 2 2 1 2 1 2 1 3 4
4 5 4 4 3 2 4 6 6 7 6 6 4 4 3 0 1 2 3 6 7 6 6 5 4 4 5 6 6 5 6 5 5 4 5 6 6 7 6 5 6 6 7 7 6 4 4 2 6 0 6 5 3 1 2 2 3 2 1 2 2 4
2 2 3 4 2 2 2 4 5 5 4 3 4 4 5 6 5 5 5 3 7 7 7 7 5 5 5 6 6 6 5 6 5 5 5 6 6 4 5 5 6 7 6 4 8 6 5 2 5 1 1 2 5 5 6 4 4 3 0 1 2 3
4 1 1 1 1 2 3 3 4 4 4 5 5 3 3 3 3 1 2 5 5 6 7 7 6 5 5 6 6 6 6 6 6 6 5 6 6 7 6 6 5 5 5 5 4 7 7 5 3 3 1 1 1 1 7 8 4 4 3 1 2 2
7 5 2 2 4 3 5 4 5 5 6 5 6 5 5 4 5 2 1 0 3 5 6 5 6 5 5 6 6 6 5 6 6 6 5 6 7 6 4 3 4 5 4 5 6 7 6 6 8 4 1 2 3 4 4 3 4 5 5 5 2 2
5 6 6 6 5 5 6 6 6 6 6 3 5 4 4 5 5 4 5 3 4 6 6 5 5 6 6 6 5 6 5 5 5 5 5 5 4 6 7 7 6 5 5 5 5 4 6 7 5 5 4 3 4 3 2 2 4 2 4 4 2 3
4 4 7 9 7 7 7 8 8 7 7 5 5 5 5 5 6 5 6 6 5 5 5 6 5 5 6 5 5 5 6 6 5 6 5 6 6 5 5 6 7 7 6 6 4 5 7 5 5 4 4 5 3 2 3 2 1 4 4 2 5 5
8 6 7 9 8 7 7 7 7 6 8 8 7 7 7 6 6 6 6 5 5 4 4 5 5 4 5 6 6 6 6 6 5 6 5 5 6 6 5 6 5 5 6 7 6 5 4 4 5 4 4 6 7 8 7 5 6 4 4 3 5 5
10 11 9 10 9 8 7 7 4 6 8 8 8 8 9 10 9 9 8 7 4 4 3 3 3 4 4 5 5 5 5 5 5 5 5 5 4 5 5 4 4 5 5 5 4 5 4 5 5 5 4 5 6 5 4 5 7 6 7 6 7 6
8 11 10 10 10 9 7 5 3 4 3 5 8 10 10 10 9 8 8 8 7 6 5 5 5 5 5 5 5 6 5 6 5 5 5 4 4 4 5 5 5 5 5 5 6 6 5 6 7 7 6 4 5 4 3 3 6 5 5 6 8 7
2 6 8 7 7 10 8 5 4 3 6 7 9 10 9 9 9 8 8 9 8 7 7 7 7 7 6 6 5 6 6 6 5 5 5 5 5 5 6 6 6 6 6 6 4 5 5 5 5 4 5 6 5 5 4 5 6 6 7 8 7 8
3 3 7 7 7 9 4 6 7 7 6 4 4 5 6 6 7 8 8 9 8 7 7 6 7 6 5 6 6 5 5 6 5 5 4 4 5 5 5 5 5 5 4 4 5 5 4 4 5 4 4 5 5 4 5 6 6 6 6 7 9 8
4 2 6 7 8 8 6 6 7 7 6 6 4 4 4 5 5 7 9 9 9 9 7 6 5 4 5 5 6 6 5 5 5 5 4 4 4 4 5 5 5 4 4 2 5 4 4 4 4 4 4 3 5 4 4 5 5 6 6 6 7 7
3 1 6 9 12 11 10 10 9 9 9 10 10 9 8 8 8 5 5 6 8 8 7 6 6 5 6 5 5 5 6 5 5 5 4 4 4 4 4 5 5 5 5 3 4 5 4 5 4 4 4 4 4 5 4 4 4 5 5 5 6 7
Wind_Direction
109 107 102 96 94 116 140 139 136 133 137 138 137 139 142 147 148 153 151 148 135 134 137 139 137 140 137 129 135 135 132 131 129 132 134 135 126 119 115 109 103 96 91 81 71 66 110 124 128 124 125 128 120 104 113 111 113 114 105 97 96 107
105 106 105 103 107 118 131 133 126 139 143 148 148 146 147 147 150 143 152 147 132 127 106 120 138 139 131 144 141 138 136 131 132 133 137 132 123 119 114 109 102 101 93 76 66 63 93 119 121 121 122 117 104 115 119 125 124 124 123 126 125 126
110 112 111 115 126 126 128 128 136 144 151 155 157 149 141 144 132 138 114 120 135 131 131 148 131 137 140 148 144 140 138 135 131 136 134 131 125 119 113 104 101 95 84 74 69 73 100 111 112 115 110 105 112 122 129 129 122 118 123 126 139 133
119 119 126 136 133 132 133 132 134 122 123 138 142 149 130 134 137 133 133 134 134 132 127 152 155 147 151 141 145 140 142 139 132 134 139 121 128 128 107 97 96 93 80 75 74 79 109 112 101 100 108 118 121 128 127 122 119 118 124 135 142 131
125 136 141 147 145 135 127 128 121 116 118 127 133 141 133 120 138 129 125 121 124 128 129 152 129 109 103 137 130 134 132 117 110 106 104 73 65 77 79 82 74 73 78 86 74 83 118 120 118 119 123 126 124 118 107 95 86 83 82 97 119 132
134 144 153 153 130 143 139 132 115 117 112 122 144 143 141 137 125 119 111 116 120 114 124 113 101 117 135 143 147 137 131 129 120 121 109 114 58 82 80 78 85 80 78 84 93 93 119 131 130 123 123 120 117 108 103 98 93 79 60 77 128 133
152 156 155 130 125 132 128 113 99 109 112 113 141 150 157 150 109 90 80 102 124 120 124 120 123 132 148 154 151 147 142 143 139 141 130 130 188 2 90 89 81 82 86 95 99 99 108 102 111 126 125 126 118 117 111 110 106 105 95 102 130 135
163 157 137 130 119 106 98 110 133 154 115 146 140 167 175 147 91 347 105 101 120 128 137 135 136 147 163 159 163 166 150 138 135 139 125 127 158 294 60 75 82 75 81 89 115 116 111 114 104 118 128 121 116 114 120 128 134 131 122 123 142 138
158 138 120 126 122 108 113 111 119 118 132 176 158 194 191 133 149 170 133 107 162 143 135 141 148 155 162 169 167 166 152 142 134 140 126 150 171 202 266 85 90 107 110 126 132 114 112 110 113 117 125 125 127 129 131 125 111 109 103 107 118 133
153 134 130 119 107 107 109 98 122 142 162 158 165 184 239 154 119 122 144 100 230 151 155 156 153 160 169 175 173 156 143 148 150 135 146 185 214 189 144 85 91 63 231 211 217 119 123 125 123 125 137 136 135 135 133 130 115 107 109 108 115 128
143 138 123 113 103 99 89 124 148 146 128 131 159 186 191 107 132 171 171 143 210 175 148 153 161 172 176 172 170 162 164 142 154 166 169 200 201 200 138 149 181 152 163 178 121 118 128 133 132 136 149 139 137 127 124 115 109 110 107 108 104 111
114 108 106 102 110 112 138 144 113 91 62 59 194 213 134 139 175 148 132 147 139 204 178 171 172 177 177 171 179 178 167 162 194 180 178 194 199 199 159 176 96 113 88 82 85 80 95 127 134 141 137 135 133 130 128 121 113 108 106 98 94 84
128 123 124 132 131 127 132 136 132 114 105 180 285 56 47 8 16 43 57 158 172 186 185 180 180 179 179 181 176 172 172 203 208 198 192 190 198 182 132 101 99 90 96 97 92 88 87 89 116 125 122 127 129 126 115 101 104 107 105 100 90 90
141 138 140 141 142 139 146 148 141 146 147 155 167 178 142 153 143 162 169 161 54 295 242 192 172 178 178 175 174 178 183 212 223 206 196 167 183 169 132 125 130 111 115 112 103 105 109 99 78 83 93 107 103 109 107 108 113 112 108 94 96 89
148 146 149 145 144 156 163 150 146 153 159 181 183 165 161 172 180 168 159 166 148 241 261 237 178 168 176 174 169 173 182 198 184 164 169 172 140 113 130 137 136 122 106 94 97 87 98 104 113 109 105 107 115 101 96 106 104 106 99 98 90 93
159 149 152 155 152 160 156 152 164 174 180 185 172 170 176 172 169 174 169 176 172 208 242 235 187 167 163 167 159 166 180 165 154 144 143 120 116 127 130 137 152 137 121 106 106 94 94 112 113 112 102 101 99 109 115 113 110 97 96 98 97 98
173 162 153 158 161 161 163 175 180 176 178 177 172 183 184 173 170 170 169 167 176 183 207 218 198 169 157 156 154 158 158 171 148 137 117 106 110 141 143 143 135 86 134 122 110 111 104 111 112 101 103 100 102 113 114 112 107 110 100 99 107 106
176 164 160 165 170 168 180 190 186 169 171 180 181 185 185 176 173 169 175 182 180 178 185 200 182 163 152 149 148 152 149 142 122 116 107 108 128 139 141 138 111 56 90 119 120 120 116 101 103 98 89 91 94 91 98 91 88 87 97 97 75 87
163 160 168 171 166 166 185 200 192 167 178 185 189 195 189 176 174 176 186 184 181 175 179 183 167 160 148 143 137 139 141 137 121 119 111 114 130 135 126 106 116 93 67 79 119 118 118 109 99 90 80 76 78 78 82 85 77 78 76 104 129 115
171 170 172 180 173 174 183 188 188 160 177 197 190 201 201 187 165 178 183 177 170 171 172 170 166 155 138 137 140 144 145 140 130 124 122 129 144 150 143 122 116 116 105 92 82 112 116 109 91 84 79 69 63 71 80 84 76 80 85 86 94 99
180 182 180 176 179 179 185 185 210 201 199 178 174 186 202 180 173 166 174 170 162 168 164 159 163 163 147 133 137 123 135 134 129 121 126 145 151 139 128 124 118 108 124 116 110 119 121 120 116 90 85 74 60 57 78 97 96 101 110 128 115 105
187 193 185 182 180 184 191 195 188 189 107 97 132 167 174 167 168 152 131 98 84 70 171 157 160 158 141 140 139 143 146 146 137 124 120 138 137 127 115 118 129 97 63 132 136 153 160 135 70 132 130 113 76 68 63 79 103 90 106 110 110 105
199 197 196 185 178 188 164 38 41 60 88 83 67 88 133 163 153 133 113 112 118 121 81 346 168 161 152 155 152 148 146 143 150 137 129 137 140 141 143 145 157 142 124 53 103 159 173 70 132 116 94 97 137 98 98 68 78 68 78 48 97 107
249 283 313 274 263 52 85 77 65 80 83 78 102 100 93 102 122 124 128 138 136 157 157 159 232 166 159 154 152 146 146 151 161 157 148 148 159 166 162 155 149 151 138 128 143 182 190 183 136 138 126 166 137 103 143 204 110 35 62 120 128 122
0 353 349 344 341 17 83 74 73 69 82 89 89 98 118 50 270 168 125 158 158 158 166 181 186 177 157 149 153 168 161 152 157 161 150 154 169 181 180 169 160 152 165 152 159 164 195 168 190 313 137 124 71 180 227 139 127 67 1 93 97 134
358 0 7 342 7 34 56 95 100 111 119 127 145 163 172 179 192 188 181 170 159 166 173 183 186 176 162 152 164 167 155 151 160 165 166 164 164 168 172 170 178 166 168 176 155 156 174 207 201 129 90 137 165 170 164 151 162 149 45 59 109 114
154 136 62 63 56 83 89 94 106 121 131 152 154 170 169 163 154 199 143 176 161 160 164 177 182 174 166 161 160 161 163 162 164 172 166 156 166 183 185 181 168 166 179 147 142 166 175 174 177 258 132 62 104 153 149 144 192 111 139 165 121 86
144 135 113 74 98 122 128 137 140 145 152 156 166 165 159 136 101 66 20 307 169 163 161 170 166 166 170 164 162 162 162 163 167 174 166 171 175 179 171 164 170 174 155 167 167 168 169 168 174 209 103 89 65 97 104 77 129 156 126 143 127 59
130 133 123 115 127 133 145 164 170 160 147 144 141 153 130 129 147 168 173 190 188 174 161 173 171 167 173 167 164 163 165 169 171 171 167 154 162 172 171 161 163 166 181 184 184 169 158 178 180 172 111 61 90 100 68 90 124 96 138 141 98 133
123 130 127 124 143 150 163 176 176 171 144 140 145 147 141 145 153 173 158 172 189 176 169 164 172 177 166 168 161 162 170 174 176 173 166 166 163 168 168 166 172 177 172 179 188 174 184 175 174 151 139 146 119 115 79 81 65 110 74 65 152 143
145 134 131 143 153 149 171 189 181 149 152 159 163 154 156 161 158 163 172 171 187 199 171 166 161 166 169 165 164 169 171 175 177 178 171 164 171 172 177 176 175 164 170 175 180 178 168 152 157 153 152 159 161 174 172 171 178 170 148 136 116 123
153 149 145 148 138 167 183 197 161 161 174 176 163 165 170 174 175 176 171 167 171 154 156 148 153 155 171 168 161 165 167 165 174 177 184 177 169 167 168 171 172 175 177 177 162 158 149 148 155 160 166 175 182 181 163 156 171 158 149 146 135 132
168 160 150 147 156 182 196 184 148 186 194 177 175 180 181 177 178 175 171 169 168 170 154 163 176 177 187 176 164 154 160 167 175 188 186 177 183 160 159 172 178 179 172 173 178 168 161 173 168 168 179 185 171 171 163 140 135 130 107 119 126 124
224 155 141 137 165 191 192 127 120 177 208 199 189 184 189 181 178 178 174 175 175 173 174 181 177 193 185 179 176 177 171 178 179 178 184 186 179 169 162 171 176 175 178 183 166 175 179 173 174 174 149 160 176 162 156 146 141 134 138 126 131 137
192 129 126 146 197 214 149 134 176 190 206 232 225 191 185 189 182 178 181 178 176 169 179 181 184 192 177 181 185 178 183 177 179 177 178 177 178 168 163 161 175 177 164 167 175 173 177 164 175 167 168 170 160 148 153 156 148 153 149 150 144 150
174 158 134 161 209 224 158 171 179 184 189 200 212 217 192 178 203 199 183 184 177 172 178 174 178 169 191 183 188 185 182 185 177 170 173 170 170 167 162 161 159 158 164 165 164 175 181 171 183 176 171 146 141 157 154 160 163 157 159 147 140 145
173 153 177 201 204 216 188 183 190 180 179 191 192 190 194 190 191 206 205 197 183 176 164 168 172 176 181 193 192 183 182 177 173 167 164 165 166 168 163 160 154 151 159 160 161 173 161 175 185 169 146 153 148 147 160 158 154 152 143 137 147 154